GFSNE_250_spd_231.txt.gz
Wind_Speed
13 13 15 16 14 16 20 21 21 20 17 15 10 12 10 10 22 9 7 9 12 16 14 4 4 8 11 13 13 14 16 20 23 22 19 17 14 12
14 17 19 18 16 14 15 19 20 21 22 23 16 12 14 15 15 21 16 4 7 6 6 7 5 5 10 13 16 21 23 23 21 19 17 15 13 13
13 14 15 15 16 18 17 16 16 20 23 26 27 25 18 11 12 10 12 9 6 7 10 5 2 6 9 13 16 20 22 22 21 18 15 14 14 14
20 20 20 20 16 14 17 22 21 19 22 27 30 27 27 15 13 14 18 18 16 14 14 12 11 10 12 13 15 16 17 16 16 18 19 18 17 18
19 16 19 22 23 21 20 18 21 24 24 24 25 32 30 30 27 28 28 22 16 20 20 20 19 19 19 20 21 21 21 22 23 23 23 23 22 20
21 22 22 23 21 20 24 25 25 24 28 30 29 30 32 33 31 35 32 28 21 22 26 28 29 28 25 25 26 26 27 28 29 28 28 27 24 23
31 29 28 27 26 26 26 25 27 28 30 31 34 37 34 34 33 36 40 42 41 37 37 36 36 34 33 32 31 30 29 29 29 29 29 27 26 24
38 38 37 36 36 34 33 32 32 32 32 34 37 38 40 41 39 39 37 41 46 41 42 44 41 40 37 39 38 37 34 33 33 32 32 32 30 30
45 45 44 43 41 40 41 38 37 39 40 40 40 42 44 43 43 47 48 45 42 42 40 44 45 42 41 39 32 39 38 39 36 35 39 32 36 36
52 53 53 53 51 48 46 45 45 44 43 45 45 47 48 50 51 50 51 53 52 51 49 49 48 51 47 46 52 44 44 37 40 36 39 34 37 35
56 57 57 57 57 56 54 54 53 54 49 48 49 50 53 56 57 55 59 54 58 59 56 56 55 55 56 49 49 45 40 37 40 37 33 33 33 34
63 62 63 66 67 64 60 59 60 61 58 55 55 56 57 60 64 64 67 63 61 62 65 61 60 54 55 62 58 57 59 49 48 50 47 46 42 43
67 68 72 74 70 67 67 66 67 67 64 64 64 65 65 67 70 70 71 70 69 64 66 63 64 58 58 56 60 58 57 55 54 51 52 47 47 46
74 76 74 73 73 73 73 72 72 72 71 69 67 68 70 73 75 76 75 76 75 72 71 57 60 66 64 58 58 60 51 63 57 54 54 55 55 56
83 81 80 79 79 78 78 77 77 78 75 73 70 71 74 76 79 81 84 84 80 78 79 68 59 63 65 66 62 60 59 61 56 54 55 57 56 55
84 84 83 81 81 81 82 84 80 77 75 77 73 70 70 71 77 81 83 85 86 81 80 78 73 71 70 69 69 65 59 59 54 54 52 50 57 57
84 84 84 84 86 86 83 84 83 80 75 71 70 68 68 70 72 77 78 81 78 84 83 84 83 76 73 74 71 70 68 61 58 57 53 48 50 57
88 89 89 86 83 83 82 76 76 74 71 69 70 69 68 66 69 72 74 75 77 82 86 87 88 82 76 73 73 73 67 64 61 57 50 45 39 48
87 82 80 79 77 73 72 71 73 73 70 68 63 62 62 59 60 62 66 69 75 81 84 86 89 88 83 81 80 74 66 61 67 58 53 50 55 51
72 72 69 67 66 64 66 67 68 67 66 62 59 56 54 53 53 54 56 62 66 72 78 82 84 88 88 91 83 73 76 74 73 68 59 54 49 47
64 61 60 61 60 60 63 64 61 59 58 56 52 51 50 50 52 50 50 53 62 65 68 75 83 84 87 90 85 83 80 73 66 65 60 56 62 57
59 57 54 55 57 60 61 61 59 56 54 51 47 48 48 48 49 47 50 50 53 59 64 71 75 80 82 86 88 90 83 81 76 68 64 63 62 63
51 52 55 57 61 61 60 60 59 53 51 48 47 46 46 42 43 46 49 52 52 56 58 64 66 74 80 84 90 93 91 84 86 80 75 68 58 53

GFSNE_250_spd_234.txt.gz
Wind_Speed
22 20 18 16 16 16 16 15 18 20 18 18 15 11 12 9 10 14 12 16 15 13 15 12 3 6 9 12 12 13 15 16 18 20 24 27 26 22
14 15 17 20 20 20 20 18 17 15 17 21 19 17 15 13 14 12 11 15 17 10 7 10 10 2 6 9 11 14 15 16 19 24 25 24 22 19
16 16 18 19 18 16 15 18 19 18 18 18 20 21 22 15 14 12 10 11 14 12 8 3 4 5 2 6 11 14 19 21 23 22 21 21 20 18
20 21 22 21 21 22 20 20 20 23 23 23 21 20 22 22 15 12 13 14 18 16 15 12 11 7 6 7 12 18 20 22 21 22 22 21 20 20
25 27 25 21 20 22 22 22 23 23 23 25 29 26 23 21 23 22 26 25 28 27 22 19 17 17 16 17 17 18 19 19 20 22 22 21 22 22
30 30 28 26 24 22 22 22 22 24 27 26 26 32 31 28 27 26 25 28 28 30 26 26 21 23 24 26 26 26 26 25 25 26 26 28 27 26
29 30 31 32 33 33 31 29 29 28 28 31 31 33 34 36 35 36 34 34 35 34 32 33 33 28 31 33 32 31 32 33 32 31 32 33 31 29
36 37 37 38 37 39 39 40 39 39 39 38 38 39 35 38 41 41 41 39 39 39 39 41 44 42 37 39 37 38 39 36 35 34 33 32 31 30
44 44 45 45 45 44 45 46 47 45 45 45 46 47 46 45 41 41 43 44 44 44 41 43 44 47 44 44 45 45 44 42 39 38 38 35 35 36
50 48 50 51 54 54 56 57 56 55 53 53 53 53 55 54 52 50 46 45 47 48 51 53 48 48 48 48 52 51 49 48 47 43 41 38 37 37
56 56 58 57 58 58 59 60 62 63 63 61 60 63 62 62 61 60 60 56 55 57 53 53 60 58 53 52 52 54 54 51 48 43 42 42 44 43
64 66 66 68 66 64 67 68 68 71 72 71 66 65 68 69 69 68 69 67 66 65 67 62 64 58 60 60 60 58 56 56 54 54 51 51 36 40
76 76 77 77 75 75 76 73 72 73 72 71 69 71 72 72 74 74 72 71 73 73 76 72 69 70 67 66 67 67 64 61 58 55 55 51 46 48
84 86 86 84 84 82 81 79 77 78 79 76 75 74 76 76 75 75 77 77 77 76 82 83 79 79 74 72 72 72 70 64 61 61 61 61 64 55
89 90 89 89 88 89 88 86 83 81 81 82 82 81 81 81 80 81 82 81 82 85 84 88 88 85 82 80 76 74 70 72 69 66 65 66 65 60
86 87 88 88 87 87 87 86 85 84 83 84 85 86 86 86 84 83 83 83 80 82 86 88 89 89 86 83 85 78 76 74 76 72 67 65 65 56
87 88 89 90 91 90 90 90 89 88 87 86 87 86 83 83 82 78 74 74 74 75 80 85 87 90 87 88 84 86 83 77 78 79 70 64 65 66
90 91 92 93 93 92 91 91 89 87 86 85 79 77 79 80 79 76 74 72 71 73 73 77 80 81 86 89 91 90 90 84 80 78 76 69 66 66
89 88 87 85 82 80 79 78 77 75 74 73 73 74 75 75 74 72 72 70 68 68 70 73 76 79 82 83 92 96 93 92 84 77 77 75 69 66
80 78 76 73 72 71 70 69 68 67 67 67 68 71 71 72 72 71 67 66 61 60 62 65 69 75 75 77 83 86 89 91 91 86 79 75 75 72
71 70 69 68 66 65 64 63 62 61 62 63 64 66 66 64 65 64 61 62 59 56 55 57 58 60 69 75 76 83 84 91 92 87 82 77 77 73
68 67 66 64 63 60 58 56 56 58 59 61 62 62 62 62 62 61 59 56 54 51 50 54 55 55 58 68 77 79 82 84 90 93 89 79 74 74
62 62 61 59 58 57 56 57 58 58 59 62 63 61 62 61 60 59 55 50 50 49 48 51 54 51 54 59 67 76 79 82 86 90 93 88 79 79

GFSNE_250_spd_237.txt.gz
Wind_Speed
14 17 18 18 17 18 18 18 16 18 17 15 14 13 11 10 9 12 17 14 11 16 14 10 4 2 3 7 10 13 17 18 20 20 21 22 22 23
15 13 15 16 17 18 20 21 22 21 19 18 16 14 13 13 13 12 13 11 6 10 13 10 5 1 4 8 10 11 14 16 18 18 19 20 21 25
16 14 14 16 17 20 20 18 18 17 17 17 17 20 18 16 15 16 14 11 9 11 11 11 8 2 1 5 10 14 15 16 18 20 21 25 28 26
19 21 22 21 23 22 21 22 23 22 21 19 18 20 20 19 18 19 16 15 15 13 11 15 13 11 6 2 4 8 12 14 15 18 20 22 22 21
26 27 26 24 25 24 22 20 22 21 20 21 21 20 20 22 21 21 19 21 22 25 20 18 17 16 16 12 10 9 13 15 18 20 21 23 24 24
28 28 26 25 24 26 27 25 24 26 27 26 24 24 24 26 25 26 26 26 28 29 28 26 24 22 24 21 20 19 19 19 20 22 23 25 26 26
33 33 31 31 30 30 30 30 31 32 32 33 33 33 32 31 30 30 31 33 33 34 32 28 28 29 28 30 27 26 28 28 28 28 29 31 32 32
35 37 38 40 39 37 37 37 38 38 38 39 38 39 40 40 39 39 36 36 38 37 42 39 39 39 35 34 32 31 34 36 36 37 37 37 38 39
44 45 45 46 47 47 46 48 47 47 47 47 50 50 51 49 47 45 45 44 44 41 42 46 45 46 43 43 46 45 43 41 42 43 43 45 44 42
50 51 50 50 53 53 53 50 49 50 49 49 51 54 54 53 53 54 52 52 53 53 49 51 49 50 49 49 48 49 51 50 48 49 49 50 49 49
56 56 58 58 58 58 58 58 59 59 59 60 58 60 60 60 61 61 62 58 59 62 60 59 61 54 53 55 57 54 51 51 54 54 56 56 54 52
64 64 64 65 66 66 67 69 69 70 72 70 72 70 70 71 71 68 67 67 63 64 70 65 69 68 67 66 63 63 64 63 57 59 60 61 58 57
73 73 75 75 76 77 78 79 79 81 81 80 80 78 77 76 76 74 71 70 69 68 72 71 75 74 71 75 76 74 69 69 69 65 64 62 63 61
80 80 81 81 82 83 85 85 85 85 84 85 84 83 82 81 79 77 75 74 70 69 74 74 75 81 79 77 80 84 83 78 74 74 71 68 67 64
78 81 82 82 83 84 85 84 83 83 84 84 83 83 81 81 80 79 77 74 73 74 75 77 79 81 82 81 81 85 89 88 83 82 77 76 73 70
76 78 80 82 82 83 82 83 85 85 85 85 85 86 86 86 86 84 83 82 80 81 81 81 82 82 81 82 84 86 88 91 92 90 88 82 77 77
81 82 84 87 89 90 91 90 89 88 88 88 87 87 87 86 85 84 82 82 82 83 84 82 79 77 77 77 82 88 91 92 96 95 89 89 83 81
83 83 86 88 89 89 91 90 89 86 83 82 80 79 79 78 76 75 74 73 74 76 75 75 72 68 69 72 74 78 84 88 92 95 90 85 87 86
87 87 85 84 84 84 82 81 79 76 75 73 71 68 68 69 68 66 67 69 69 70 73 72 68 69 68 66 72 73 75 80 86 85 88 85 85 90
84 84 83 79 76 75 73 73 72 70 68 66 65 64 63 63 63 63 65 67 68 69 71 69 65 64 61 62 65 72 73 76 80 79 84 85 81 88
75 75 74 74 72 72 71 71 69 67 66 65 64 63 62 62 62 61 63 64 64 64 66 65 62 58 56 56 58 64 68 67 71 76 77 78 83 84
69 70 70 70 71 69 69 68 66 66 64 63 61 61 60 60 59 60 61 63 62 62 63 62 57 53 51 51 53 55 57 59 61 67 70 72 80 85
64 64 64 65 65 65 64 64 64 63 63 63 61 60 60 60 61 63 64 63 62 63 62 61 56 53 51 49 49 48 50 53 56 58 64 70 74 80

GFSNE_250_spd_240.txt.gz
Wind_Speed
13 10 11 12 12 13 13 14 17 15 16 15 14 11 9 9 8 5 11 10 8 12 15 16 11 2 1 5 8 13 19 20 19 19 16 21 23 24
13 12 12 12 12 12 12 16 15 14 13 13 13 12 11 11 13 12 9 8 4 6 9 10 12 9 2 4 6 8 12 17 19 19 20 22 26 28
15 14 12 11 12 14 17 17 18 17 16 17 14 13 13 12 11 12 14 11 10 11 7 7 9 10 8 6 9 10 11 13 15 17 18 20 20 21
19 16 17 18 19 21 19 18 17 16 15 15 16 15 14 15 16 14 11 14 16 15 13 8 11 11 12 9 7 10 13 16 18 19 21 23 23 23
26 25 24 23 25 24 21 21 17 17 17 17 16 16 17 16 16 17 18 17 17 20 21 20 17 15 15 15 13 9 9 10 12 16 18 20 23 25
27 28 28 26 27 27 25 23 23 22 22 23 22 21 21 21 21 22 21 21 22 25 26 27 25 23 25 20 19 19 15 14 16 17 18 20 23 25
31 32 33 33 30 33 34 33 33 32 29 28 27 27 26 27 29 29 29 31 31 28 30 32 34 31 27 27 24 26 26 24 23 24 26 27 28 29
35 39 40 43 43 41 41 39 38 38 39 39 39 38 36 35 33 35 35 36 38 38 38 37 36 37 37 35 34 32 35 32 33 34 34 35 36 35
43 47 49 49 49 50 49 48 47 48 47 47 47 46 46 42 39 41 40 41 42 40 41 48 43 43 41 42 44 44 42 41 42 42 41 43 44 44
47 49 50 52 55 54 54 55 53 52 52 53 52 52 52 49 45 46 47 48 49 50 45 51 49 51 50 50 50 50 51 49 49 52 50 49 50 51
53 54 58 59 60 61 61 61 61 61 59 59 59 60 61 61 59 57 58 56 58 60 60 58 59 55 54 58 58 57 55 56 58 56 56 60 58 55
59 61 65 64 64 64 65 66 67 68 67 66 68 67 67 69 68 66 67 67 69 70 69 63 66 62 62 62 61 64 65 65 61 61 63 63 60 64
65 67 69 72 74 74 76 77 76 77 76 76 77 76 77 78 79 79 78 77 76 74 74 72 70 69 66 68 71 69 68 69 69 70 71 68 66 66
57 59 62 65 69 72 73 74 76 77 77 79 81 84 85 86 86 83 80 78 76 75 77 75 71 71 67 64 68 74 74 72 74 76 78 78 77 72
78 77 72 70 68 68 71 73 76 75 74 74 75 76 78 78 80 80 79 77 76 77 78 78 75 74 72 71 71 73 75 79 79 78 80 81 82 80
80 79 76 72 74 73 72 74 76 78 78 77 77 80 83 84 84 83 82 80 78 80 80 78 76 76 76 76 75 78 81 80 85 86 85 84 84 84
76 75 74 75 76 75 76 76 76 79 81 83 83 84 82 81 81 81 78 78 77 78 79 76 74 73 74 76 77 79 83 84 86 89 87 85 86 87
84 78 75 75 76 76 77 80 82 83 82 80 78 77 79 78 76 73 71 69 68 69 70 71 70 68 68 69 73 74 76 80 82 83 85 81 83 86
89 79 75 73 73 72 74 76 76 76 76 76 75 73 71 69 68 68 66 64 63 63 64 64 64 64 64 64 66 67 68 72 74 75 77 75 75 79
87 84 79 72 70 71 72 72 72 72 72 71 70 69 67 67 66 64 64 63 61 60 59 59 60 60 59 59 59 63 67 65 67 67 70 72 74 78
83 78 72 69 67 66 67 68 68 68 68 67 67 67 65 64 63 62 61 59 59 59 59 58 59 59 59 57 57 59 64 64 59 60 61 64 70 74
73 70 66 63 62 62 63 63 63 64 65 66 66 66 65 64 62 60 60 60 58 58 58 60 61 60 60 58 57 57 59 61 57 57 57 58 61 64
60 59 60 59 61 62 62 64 64 63 64 65 66 66 67 65 65 64 62 62 61 60 59 60 61 63 61 60 60 56 56 57 53 51 51 50 53 56

GFSNE_250_spd_246.txt.gz
Wind_Speed
8 9 8 9 8 6 6 2 8 12 9 8 8 9 7 5 4 4 4 3 3 3 2 3 7 10 4 5 12 17 20 24 27 28 28 30 35 35
14 11 9 9 8 9 9 10 14 14 11 10 9 8 8 7 7 6 7 9 7 6 5 7 4 10 12 5 5 11 17 21 25 26 27 28 33 34
12 13 11 12 12 13 12 13 17 17 14 13 11 10 10 8 8 6 7 7 10 12 9 8 7 5 7 11 9 7 11 19 24 27 27 29 31 33
11 12 14 15 16 18 18 19 20 20 18 15 14 15 16 15 13 11 10 9 9 11 13 14 14 14 11 10 12 14 12 15 17 23 30 30 31 32
15 17 16 16 15 16 19 21 20 21 22 20 19 21 22 22 22 20 18 17 17 15 14 15 18 18 20 21 19 18 18 19 17 23 25 28 31 33
17 22 18 18 18 18 21 23 24 25 25 26 26 26 26 26 25 25 25 26 25 24 22 21 20 18 19 22 24 24 22 23 23 23 23 28 30 32
17 20 22 23 21 17 22 27 33 38 39 42 43 43 42 39 38 34 32 32 33 32 32 31 30 29 27 26 25 26 29 30 27 27 27 28 28 30
25 21 14 12 13 19 18 24 32 34 36 43 46 47 47 49 50 49 45 44 46 43 42 42 39 41 38 34 32 30 31 32 32 34 34 35 33 33
24 18 20 22 25 33 34 37 32 32 36 33 37 42 43 48 52 53 55 55 54 54 52 51 49 47 48 45 44 39 36 36 36 37 38 40 40 41
20 26 27 30 37 49 41 40 38 44 45 45 42 43 47 52 47 54 59 58 58 60 56 56 57 54 55 55 50 51 49 45 42 42 43 44 44 46
30 33 35 44 48 49 48 46 49 52 53 51 50 50 53 56 59 65 67 66 67 67 66 62 64 63 63 64 63 61 60 57 57 55 51 49 49 50
40 43 54 52 52 54 55 57 58 60 56 60 64 61 63 67 63 62 70 73 73 74 75 70 72 70 68 69 69 70 69 68 65 64 63 62 58 55
50 56 58 53 56 56 60 65 66 66 69 70 65 66 69 72 72 68 70 74 76 78 76 77 79 79 78 78 77 75 73 73 74 73 71 70 70 67
60 56 57 59 63 65 70 70 71 74 77 76 76 79 77 73 71 73 76 79 78 79 80 80 81 79 78 78 80 82 83 83 82 82 80 78 78 76
56 58 65 67 68 71 71 75 77 81 82 80 78 77 75 75 76 76 78 80 83 82 83 83 84 83 81 82 81 80 82 83 85 87 86 84 84 83
62 63 69 70 75 78 80 86 82 80 80 77 76 76 74 74 72 70 68 72 74 79 80 83 87 89 88 86 84 83 84 85 87 86 85 84 84 83
66 71 74 76 80 82 82 82 81 79 76 74 73 73 73 73 75 73 73 72 73 74 77 78 81 84 86 88 88 87 86 86 87 88 87 83 83 83
74 79 84 86 85 81 77 76 76 79 80 79 77 78 78 77 75 74 73 75 74 75 77 77 78 79 80 82 82 82 83 83 83 83 83 81 80 80
82 84 85 84 80 76 78 83 80 81 83 83 80 78 78 78 74 69 66 67 69 71 73 75 77 79 79 78 78 76 76 77 77 78 80 79 76 76
91 84 81 81 81 81 82 83 83 84 84 77 75 75 73 71 64 62 61 59 61 63 65 67 70 72 74 75 76 76 74 74 73 73 74 73 73 72
87 85 86 84 83 84 85 84 82 78 68 61 59 58 58 58 57 56 57 58 61 63 63 63 64 66 67 70 72 74 75 73 72 71 73 73 72 72
89 88 88 85 86 85 83 79 71 65 55 50 49 50 52 54 55 59 63 65 67 67 67 68 69 69 70 70 71 72 73 72 72 70 68 71 72 72
88 88 88 89 87 83 74 67 64 58 54 52 51 53 55 57 60 64 67 69 70 69 68 70 70 71 72 72 73 72 72 74 73 72 70 69 70 71